Location: *
(33.8649°S, 62.1526°E)
Time: 22:31:36
(UTC+00:00)

OAO 3 Copernicus - Visible Passes

Search period start: 05 May 2021 00:00
Search period end: 15 May 2021 00:00
Orbit: 695 x 704 km, 35.0° (Epoch: 04 May)

Date Brightness Start Highest point End Pass type
(mag) Time Alt. Az. Time Alt. Az. Time Alt. Az.
05 May 5.2 14:12:18 10° NW 14:16:56 36° NNE 14:19:28 22° ENE visible
05 May 6.4 15:56:09 10° WNW 15:58:11 24° WNW 15:58:11 24° WNW visible
06 May 4.2 14:54:48 10° WNW 14:59:52 70° NNE 15:00:16 66° NE visible
07 May 4.8 13:53:37 10° NW 13:58:32 51° NNE 14:02:18 17° E visible
07 May 5.6 15:37:53 10° W 15:41:01 38° W 15:41:01 38° W visible
08 May 4.2 14:36:28 10° WNW 14:41:34 86° N 14:43:02 48° E visible
08 May 7.2 16:21:07 10° W 16:21:45 14° W 16:21:45 14° W visible
09 May 4.5 13:35:08 10° WNW 13:40:11 69° NNE 13:45:01 11° E visible
09 May 4.8 15:19:39 10° W 15:23:44 56° WSW 15:23:44 56° WSW visible
10 May 4.3 14:18:12 10° W 14:23:19 83° S 14:25:43 32° ESE visible
10 May 6.7 16:02:52 10° W 16:04:26 20° W 16:04:26 20° W visible
11 May 4.2 15:01:25 10° W 15:06:26 78° SSW 15:06:26 78° SSW visible
12 May 4.3 13:59:58 10° W 14:05:05 78° S 14:08:26 22° E visible
12 May 6.1 15:44:36 10° W 15:47:09 30° W 15:47:09 30° W visible
13 May 4.2 14:43:11 10° W 14:48:18 86° S 14:49:12 61° E visible
13 May 7.4 16:27:52 10° W 16:27:56 10° W 16:27:56 10° W visible
14 May 4.3 13:41:45 10° W 13:46:51 79° S 13:51:18 14° E visible
14 May 5.3 15:26:22 10° W 15:30:02 44° WNW 15:30:02 44° WNW visible
